FW7487 Weather Reports


Display with metric or nautical units.
time (UTC)temp
F
wind
direction
speed
MPH
gust
MPH
rain 1hr
in
rain 24hr
in
rain mn
in
humidity
%
barometer
mb
20260509033048 62 360 0.0 1.0 0.00 0.00 0.00 88 1014.8
20260509031553 63 0 0.0 3.0 0.00 0.00 0.00 87 1015.1
20260509030046 63 0 0.0 2.0 0.00 0.00 0.00 87 1014.8
20260509024549 63 360 1.0 4.0 0.00 0.00 0.00 88 1014.9
20260509023105 63 0 0.0 3.0 0.00 0.00 0.00 88 1015.3
20260509021548 63 360 0.0 3.0 0.00 0.00 0.00 89 1015.4
20260509020054 63 0 0.0 0.0 0.00 0.00 0.00 88 1015.3
20260509014544 64 0 0.0 1.0 0.00 0.00 0.00 87 1014.8
20260509013054 64 360 1.0 3.0 0.00 0.00 0.00 86 1014.6
20260509011557 64 0 0.0 2.0 0.00 0.00 0.00 86 1014.9
20260509010053 64 360 0.0 2.0 0.00 0.00 0.00 85 1015.3
20260509004551 64 0 0.0 1.0 0.00 0.00 0.00 85 1015.4
20260509003047 64 0 0.0 1.0 0.00 0.00 0.00 84 1015.7
20260509001545 64 360 0.0 1.0 0.00 0.00 0.00 83 1015.8
20260509000042 65 0 0.0 2.0 0.00 0.00 0.00 83 1015.5
20260508234552 65 0 0.0 2.0 0.00 0.00 0.00 81 1015.3
20260508233048 66 360 0.0 2.0 0.00 0.00 0.00 81 1015.7
20260508231547 66 360 1.0 4.0 0.00 0.00 0.00 80 1015.7
20260508230048 66 360 0.0 2.0 0.00 0.00 0.00 79 1015.4
20260508224546 66 360 0.0 3.0 0.00 0.00 0.00 77 1015.0
20260508223051 67 0 0.0 2.0 0.00 0.00 0.00 76 1014.9
20260508221551 67 0 0.0 3.0 0.00 0.00 0.00 76 1015.0
20260508220049 67 0 0.0 4.0 0.00 0.00 0.00 75 1014.8
20260508214547 67 0 0.0 4.0 0.00 0.00 0.00 75 1015.1
20260508213046 67 360 1.0 4.0 0.00 0.00 0.00 73 1015.0
20260508211545 67 360 0.0 3.0 0.00 0.00 0.00 74 1015.5
20260508210048 67 360 0.0 4.0 0.00 0.00 0.00 73 1015.6
20260508204553 67 360 1.0 5.0 0.00 0.00 0.00 73 1015.7
20260508203047 67 360 2.0 5.0 0.00 0.00 0.00 71 1015.5
20260508201548 68 360 1.0 4.0 0.00 0.00 0.00 72 1015.4
20260508200105 67 360 2.0 8.0 0.00 0.00 0.00 72 1015.6
20260508194553 68 360 2.0 5.0 0.00 0.00 0.00 69 1015.8
20260508193130 69 360 1.0 5.0 0.00 0.00 0.00 67 1016.2
20260508191556 68 360 1.0 6.0 0.00 0.00 0.00 69 1016.0
20260508190047 69 360 2.0 6.0 0.00 0.00 0.00 66 1016.0
20260508184551 69 360 2.0 6.0 0.00 0.00 0.00 64 1016.0
20260508183109 69 360 1.0 8.0 0.00 0.00 0.00 63 1016.4
20260508181601 70 360 1.0 5.0 0.00 0.00 0.00 62 1016.6
20260508180050 69 360 1.0 6.0 0.00 0.00 0.00 60 1016.7
20260508174552 70 132 2.0 5.0 0.00 0.00 0.00 59 1017.2
20260508173047 69 55 1.0 5.0 0.00 0.00 0.00 61 1017.0
20260508171545 69 360 1.0 3.0 0.00 0.00 0.00 59 1017.3
20260508170054 68 0 0.0 5.0 0.00 0.00 0.00 61 1017.3
20260508164550 70 141 2.0 6.0 0.00 0.00 0.00 57 1017.0
20260508163050 69 0 2.0 5.0 0.00 0.00 0.00 58 1017.6
20260508161548 69 0 2.0 6.0 0.00 0.00 0.00 56 1017.6
20260508160047 69 113 1.0 6.0 0.00 0.00 0.00 58 1017.9
20260508154606 68 333 1.0 5.0 0.00 0.13 0.00 61 1018.3
20260508153046 68 104 2.0 7.0 0.00 0.13 0.00 57 1018.7
20260508151542 68 0 1.0 6.0 0.00 0.13 0.00 59 1018.5
20260508150048 68 56 1.0 6.0 0.00 0.13 0.00 61 1018.4
20260508144600 68 169 2.0 7.0 0.00 0.13 0.00 62 1018.4
20260508143046 68 124 3.0 8.0 0.00 0.13 0.00 62 1018.5
20260508141543 67 64 1.0 8.0 0.00 0.13 0.00 67 1018.7
20260508140051 66 64 2.0 9.0 0.00 0.13 0.00 69 1018.5
20260508134611 65 15 1.0 9.0 0.00 0.14 0.00 73 1018.6
20260508133056 63 360 1.0 5.0 0.00 0.14 0.00 75 1018.6
20260508131550 62 360 0.0 4.0 0.00 0.14 0.00 76 1018.6
20260508130046 61 360 1.0 4.0 0.00 0.14 0.00 77 1018.5
20260508124555 60 360 1.0 3.0 0.00 0.17 0.00 78 1018.1
20260508123052 60 0 1.0 4.0 0.00 0.17 0.00 80 1018.5
20260508121548 59 360 3.0 6.0 0.00 0.17 0.00 82 1018.1
20260508120048 58 360 2.0 5.0 0.00 0.17 0.00 84 1018.1
20260508114546 57 360 1.0 4.0 0.00 0.42 0.00 86 1017.9
20260508113042 57 0 0.0 0.0 0.00 0.42 0.00 87 1017.5
20260508111551 56 0 0.0 0.0 0.00 0.42 0.00 87 1017.1
20260508110049 56 0 0.0 0.0 0.00 0.42 0.00 88 1016.9
20260508104548 56 0 0.0 3.0 0.00 0.54 0.00 87 1016.3
20260508103044 56 360 1.0 3.0 0.00 0.54 0.00 86 1016.4
20260508101543 57 360 2.0 4.0 0.00 0.54 0.00 85 1016.0
20260508100106 58 360 2.0 5.0 0.00 0.54 0.00 85 1015.7
20260508094601 58 0 1.0 4.0 0.00 0.57 0.00 84 1015.7
20260508093047 58 360 1.0 4.0 0.00 0.57 0.00 83 1015.6
20260508091603 58 0 1.0 3.0 0.00 0.57 0.00 83 1015.6
20260508090113 58 360 0.0 3.0 0.00 0.57 0.00 83 1015.4
20260508084550 58 360 0.0 3.0 0.00 0.57 0.00 82 1015.5
20260508083047 59 360 2.0 4.0 0.00 0.57 0.00 81 1015.3
20260508081602 59 360 2.0 5.0 0.00 0.57 0.00 80 1015.3
20260508080042 60 360 2.0 5.0 0.00 0.57 0.00 81 1015.1
20260508074547 60 360 3.0 6.0 0.00 0.62 0.00 81 1014.7
20260508073104 60 360 3.0 5.0 0.00 0.62 0.00 81 1014.9
20260508071547 60 360 2.0 10.0 0.00 0.62 0.00 82 1014.9
20260508070049 60 360 3.0 6.0 0.00 0.62 0.00 83 1014.9
20260508064549 60 360 3.0 9.0 0.00 0.89 0.00 83 1014.8
20260508063054 61 360 4.0 10.0 0.00 0.89 0.00 82 1015.1
20260508061554 61 360 4.0 11.0 0.00 0.89 0.00 83 1015.6
20260508054543 61 360 3.0 9.0 0.00 1.24 0.00 83 1015.6
20260508053042 62 360 2.0 9.0 0.00 1.24 0.00 84 1015.7
20260508051559 62 360 4.0 10.0 0.00 1.24 0.00 84 1015.9
20260508050047 62 360 3.0 9.0 0.00 1.24 0.00 85 1015.7
20260508044550 62 360 3.0 6.0 0.00 1.43 0.00 85 1015.9
20260508043046 63 360 3.0 6.0 0.00 1.43 0.00 84 1015.8
20260508041551 63 360 3.0 6.0 0.00 1.43 0.00 84 1015.8
20260508040056 63 360 3.0 8.0 0.00 1.43 0.00 84 1015.8
20260508034551 64 360 2.0 6.0 0.00 1.64 1.43 84 1015.7